Change the Weather History Date:

Friday, February 22, 2013

  Actual Average Record
Temperature  
Mean Temperature 22 °F -  
Max Temperature 26 °F 33 °F 55 °F (1977)
Min Temperature 19 °F 15 °F -9 °F (1965)
Degree Days  
Heating Degree Days 42    
Moisture  
Dew Point 16 °F    
Average Humidity 78    
Maximum Humidity 86    
Minimum Humidity 69    
Precipitation  
Precipitation 0.02 in - - ()
Sea Level Pressure  
Sea Level Pressure 29.92 in    
Wind  
Wind Speed 7 mph (NW)    
Max Wind Speed 13 mph    
Max Gust Speed 9 mph    
Visibility 6 miles    
Events Snow    
Averages and records for this station are not official NWS values.
T = Trace of Precipitation, MM = Missing Value Source: NWS Daily Summary

Daily Weather History Graph

Daily Weather History Graph

Search for Another Location

Airport or City:

Trip Planner

Search our weather history database for the weather conditions in past years. The results will help you decide how hot, cold, wet, or windy it might be!

Date:

Astronomy

Feb. 22, 2013 Rise Set
Actual Time 7:06 AM CST 5:57 PM CST
Civil Twilight 6:36 AM CST 6:27 PM CST
Nautical Twilight 6:03 AM CST 7:00 PM CST
Astronomical Twilight 5:30 AM CST 7:33 PM CST
Moon 3:06 PM CST (2/22) 4:56 AM CST (2/22)
Length of Visible Light 11h 50m
Length of Day
10h 51m
Waxing Gibbous, 90% of the Moon is Illuminated
Feb 22
Waxing Gibbous
Feb 25
Full
Mar 4
Last Quarter
Mar 11
New
Mar 19
First Quarter

Hourly Weather History & Observations

Time (CST) Temp. Windchill Dew Point Humidity Pressure Visibility Wind Dir Wind Speed Gust Speed Precip Events Conditions
12:15 AM 21.2 °F 11.7 °F 15.8 °F 80% 30.00 in 1.2 mi NE 8.1 mph - N/A Snow Light Snow
12:35 AM 21.2 °F - 15.8 °F 80% 29.99 in 1.5 mi Calm Calm - N/A Snow Light Snow
12:55 AM 21.2 °F - 15.8 °F 80% 29.99 in 1.8 mi Calm Calm - N/A Snow Light Snow
1:15 AM 21.2 °F - 15.8 °F 80% 29.98 in 2.0 mi Calm Calm - N/A Snow Light Snow
1:35 AM 21.2 °F 11.7 °F 15.8 °F 80% 29.97 in 2.5 mi NNE 8.1 mph - 0.01 in Snow Light Snow
1:54 AM 21.2 °F 14.9 °F 15.8 °F 80% 29.97 in 2.0 mi NNE 4.6 mph - 0.01 in Snow Light Snow
2:15 AM 21.2 °F 10.9 °F 15.8 °F 80% 29.96 in 2.5 mi North 9.2 mph - N/A Snow Light Snow
2:34 AM 21.2 °F 16.4 °F 15.8 °F 80% 29.96 in 1.2 mi NNE 3.5 mph - N/A Snow Light Snow
2:55 AM 21.2 °F 14.9 °F 15.8 °F 80% 29.94 in 1.2 mi North 4.6 mph - N/A Snow Light Snow
3:15 AM 21.2 °F - 15.8 °F 80% 29.93 in 2.0 mi Calm Calm - N/A Snow Light Snow
3:35 AM 21.2 °F 10.9 °F 15.8 °F 80% 29.92 in 2.0 mi North 9.2 mph - N/A Snow Light Snow
3:55 AM 21.2 °F 11.7 °F 15.8 °F 80% 29.92 in 3.0 mi North 8.1 mph - N/A Snow Light Snow
4:15 AM 21.2 °F 10.1 °F 15.8 °F 80% 29.91 in 1.5 mi North 10.4 mph - N/A Snow Light Snow
4:35 AM 21.2 °F 16.4 °F 15.8 °F 80% 29.91 in 1.5 mi North 3.5 mph 9.2 mph N/A Snow Light Snow
4:55 AM 21.2 °F 10.1 °F 15.8 °F 80% 29.91 in 2.5 mi North 10.4 mph - N/A Snow Light Snow
5:15 AM 21.2 °F 10.9 °F 15.8 °F 80% 29.91 in 3.0 mi North 9.2 mph - N/A Snow Light Snow
5:35 AM 21.2 °F 9.5 °F 17.6 °F 86% 29.91 in 2.5 mi North 11.5 mph - N/A Snow Light Snow
6:15 AM 21.2 °F 8.9 °F 17.6 °F 86% 29.90 in 5.0 mi North 12.7 mph - N/A Snow Light Snow
6:55 AM 21.2 °F 10.1 °F 15.8 °F 80% 29.89 in 3.0 mi North 10.4 mph - N/A Snow Light Snow
7:15 AM 21.2 °F 10.1 °F 15.8 °F 80% 29.89 in 7.0 mi North 10.4 mph - N/A Snow Light Snow
7:55 AM 21.2 °F 10.9 °F 15.8 °F 80% 29.89 in 5.0 mi North 9.2 mph - N/A Snow Light Snow
8:55 AM 23.0 °F 12.4 °F 17.6 °F 80% 29.89 in 5.0 mi North 10.4 mph - N/A Snow Light Snow
9:35 AM 24.8 °F 14.0 °F 17.6 °F 74% 29.90 in 2.0 mi North 11.5 mph - N/A Snow Light Snow
9:55 AM 24.8 °F 14.6 °F 17.6 °F 74% 29.90 in 2.5 mi North 10.4 mph - N/A Snow Light Snow
10:15 AM 24.8 °F 14.0 °F 17.6 °F 74% 29.90 in 2.0 mi North 11.5 mph - N/A Snow Light Snow
10:34 AM 24.8 °F 14.6 °F 17.6 °F 74% 29.90 in 3.0 mi NNW 10.4 mph - 0.01 in Snow Light Snow
10:55 AM 26.6 °F 16.2 °F 17.6 °F 69% 29.90 in 5.0 mi North 11.5 mph - 0.01 in Snow Light Snow
11:15 AM 26.6 °F - 17.6 °F 69% 29.90 in 7.0 mi Calm Calm - N/A Snow Light Snow
11:34 AM 26.6 °F - 17.6 °F 69% 29.90 in 5.0 mi Calm Calm - N/A Snow Light Snow
11:55 AM 26.6 °F - 17.6 °F 69% 29.89 in 7.0 mi Calm Calm - N/A Snow Light Snow
12:35 PM 26.6 °F - 17.6 °F 69% 29.89 in 10.0 mi Calm Calm - N/A Snow Light Snow
12:55 PM 26.6 °F 17.5 °F 17.6 °F 69% 29.88 in 10.0 mi NW 9.2 mph - N/A Snow Light Snow
1:15 PM 26.6 °F 20.0 °F 17.6 °F 69% 29.88 in 10.0 mi NW 5.8 mph - N/A Snow Light Snow
1:35 PM 26.6 °F 19.1 °F 17.6 °F 69% 29.89 in 10.0 mi NW 6.9 mph - N/A Snow Light Snow
1:55 PM 26.6 °F 18.2 °F 17.6 °F 69% 29.89 in 10.0 mi WNW 8.1 mph - N/A   Overcast
2:15 PM 26.6 °F 19.1 °F 17.6 °F 69% 29.89 in 10.0 mi WNW 6.9 mph - N/A Snow Light Snow
2:34 PM 26.6 °F 16.8 °F 17.6 °F 69% 29.90 in 10.0 mi WNW 10.4 mph - N/A Snow Light Snow
5:35 PM 24.8 °F 13.4 °F 17.6 °F 74% 29.92 in 10.0 mi West 12.7 mph - N/A Snow Light Snow
5:55 PM 23.0 °F 12.4 °F 17.6 °F 80% 29.92 in 10.0 mi West 10.4 mph - N/A   Overcast
6:15 PM 23.0 °F 12.4 °F 15.8 °F 74% 29.92 in - WNW 10.4 mph - N/A Snow Light Snow
6:35 PM 21.2 °F 10.9 °F 15.8 °F 80% 29.92 in 7.0 mi WNW 9.2 mph - N/A Snow Light Snow
6:55 PM 21.2 °F 10.1 °F 15.8 °F 80% 29.92 in 10.0 mi West 10.4 mph - N/A Snow Light Snow
7:15 PM 21.2 °F 10.9 °F 15.8 °F 80% 29.92 in 10.0 mi West 9.2 mph - N/A   Overcast
7:35 PM 21.2 °F 8.9 °F 15.8 °F 80% 29.91 in 10.0 mi West 12.7 mph - N/A Snow Light Snow
7:54 PM 21.2 °F 8.9 °F 15.8 °F 80% 29.92 in 10.0 mi West 12.7 mph - N/A Snow Light Snow
8:15 PM 21.2 °F 9.5 °F 15.8 °F 80% 29.92 in 10.0 mi West 11.5 mph - N/A Snow Light Snow
8:35 PM 19.4 °F 8.6 °F 15.8 °F 86% 29.92 in 7.0 mi West 9.2 mph - N/A Snow Light Snow
8:55 PM 19.4 °F 8.6 °F 14.0 °F 80% 29.92 in 7.0 mi West 9.2 mph - N/A Snow Light Snow
9:15 PM 19.4 °F 8.6 °F 14.0 °F 80% 29.92 in 7.0 mi West 9.2 mph - N/A Snow Light Snow
9:35 PM 19.4 °F 8.6 °F 14.0 °F 80% 29.92 in 5.0 mi West 9.2 mph - N/A Snow Light Snow
9:55 PM 19.4 °F 7.9 °F 14.0 °F 80% 29.91 in 7.0 mi West 10.4 mph - N/A Snow Light Snow
10:14 PM 19.4 °F 9.5 °F 14.0 °F 80% 29.91 in 10.0 mi West 8.1 mph - N/A Snow Light Snow
10:35 PM 19.4 °F - 14.0 °F 80% 29.90 in 10.0 mi Calm Calm - N/A   Overcast
10:55 PM 19.4 °F 7.9 °F 14.0 °F 80% 29.90 in 10.0 mi WNW 10.4 mph - N/A Snow Light Snow
11:14 PM 19.4 °F 8.6 °F 14.0 °F 80% 29.90 in 10.0 mi West 9.2 mph - N/A   Overcast
11:55 PM 19.4 °F 7.9 °F 14.0 °F 80% 29.91 in 10.0 mi West 10.4 mph - N/A   Overcast